Teterboro, NJ

10:57 AM EST on February 09, 2016 (GMT -0500)
Teterboro

Weather History for KTEB - April, 2014

Change the Weather History Date:

Friday, April 4, 2014

  Actual Average Record
Temperature  
Mean Temperature 44 °F -  
Max Temperature 48 °F 54 °F 68 °F (2012)
Min Temperature 41 °F 36 °F 16 °F (2006)
Degree Days  
Heating Degree Days 20    
Moisture  
Dew Point 37 °F    
Average Humidity 78    
Maximum Humidity 89    
Minimum Humidity 63    
Precipitation  
Precipitation 0.20 in - - ()
Sea Level Pressure  
Sea Level Pressure 29.94 in    
Wind  
Wind Speed 6 mph (East)    
Max Wind Speed 16 mph    
Max Gust Speed 25 mph    
Visibility 6 miles    
Events Rain    
Averages and records for this station are not official NWS values.
T = Trace of Precipitation, MM = Missing Value Source: NWS Daily Summary

Daily Weather History Graph

Daily Weather History Graph

Search for Another Location

Airport or City:

Trip Planner

Search our weather history database for the weather conditions in past years. The results will help you decide how hot, cold, wet, or windy it might be!

Date:

Astronomy

Apr. 04, 2014 Rise Set
Actual Time 6:34 AM EDT 7:24 PM EDT
Civil Twilight 6:07 AM EDT 7:52 PM EDT
Nautical Twilight 5:34 AM EDT 8:25 PM EDT
Astronomical Twilight 4:59 AM EDT 8:59 PM EDT
Moon 9:48 AM EDT (4/4) No Moon Set
Length of Visible Light 13h 45m
Length of Day
12h 49m
Waxing Crescent, 25% of the Moon is Illuminated
Apr 4
Waxing Crescent
Apr 7
First Quarter
Apr 15
Full
Apr 22
Last Quarter
Apr 29
New

Hourly Weather History & Observations

Time (EDT) Temp. Windchill Dew Point Humidity Pressure Visibility Wind Dir Wind Speed Gust Speed Precip Events Conditions
12:51 AM 48.9 °F - 39.0 °F 69% 30.08 in 10.0 mi Calm Calm - 0.01 in Rain Light Rain
1:51 AM 48.9 °F - 41.0 °F 74% 30.06 in 10.0 mi Calm Calm - 0.01 in Rain Light Rain
2:51 AM 46.9 °F - 39.9 °F 77% 30.06 in 10.0 mi ESE 6.9 mph - 0.00 in Rain Light Rain
3:51 AM 46.0 °F 41.9 °F 39.0 °F 76% 30.06 in 9.0 mi ESE 8.1 mph - 0.00 in Rain Light Rain
4:51 AM 45.0 °F 40.1 °F 37.0 °F 74% 30.06 in 10.0 mi East 9.2 mph - 0.00 in Rain Light Rain
5:51 AM 45.0 °F 41.2 °F 37.0 °F 74% 30.05 in 10.0 mi East 6.9 mph - 0.00 in Rain Light Rain
6:51 AM 44.1 °F 41.5 °F 35.1 °F 71% 30.06 in 7.0 mi East 4.6 mph - 0.01 in Rain Light Rain
7:51 AM 45.0 °F 40.6 °F 34.0 °F 65% 30.06 in 10.0 mi ESE 8.1 mph - 0.00 in Rain Light Rain
8:51 AM 44.1 °F 40.8 °F 35.1 °F 71% 30.05 in 10.0 mi East 5.8 mph - 0.00 in Rain Light Rain
9:51 AM 45.0 °F 41.8 °F 37.0 °F 74% 30.05 in 10.0 mi East 5.8 mph - 0.00 in   Overcast
10:51 AM 45.0 °F 42.6 °F 37.0 °F 74% 30.04 in 10.0 mi East 4.6 mph - 0.00 in   Overcast
11:51 AM 45.0 °F 39.7 °F 34.0 °F 65% 30.05 in 5.0 mi SE 10.4 mph - 0.00 in Rain Light Rain
12:11 PM 44.6 °F 39.7 °F 35.6 °F 71% 30.04 in 4.0 mi ESE 9.2 mph - 0.00 in   Overcast
12:51 PM 44.1 °F 39.0 °F 34.0 °F 68% 30.03 in 8.0 mi East 9.2 mph 19.6 mph 0.00 in   Overcast
12:58 PM 44.6 °F 38.4 °F 33.8 °F 66% 30.02 in 10.0 mi East 12.7 mph 20.7 mph N/A   Overcast
1:51 PM 45.0 °F 38.5 °F 33.1 °F 63% 30.00 in 6.0 mi ESE 13.8 mph - N/A   Haze
2:51 PM 44.1 °F 39.5 °F 35.1 °F 71% 29.98 in 7.0 mi East 8.1 mph 18.4 mph 0.00 in Rain Light Rain
3:51 PM 43.0 °F 38.2 °F 36.0 °F 76% 29.94 in 8.0 mi East 8.1 mph - 0.00 in   Light Drizzle
4:51 PM 43.0 °F 37.7 °F 35.1 °F 74% 29.91 in 10.0 mi East 9.2 mph 18.4 mph 0.00 in   Overcast
5:41 PM 42.8 °F 37.0 °F 35.6 °F 76% 29.88 in 3.0 mi ESE 10.4 mph 20.7 mph 0.00 in Rain Light Rain
5:51 PM 42.1 °F 34.2 °F 36.0 °F 79% 29.88 in 3.0 mi East 16.1 mph 25.3 mph 0.00 in Rain Light Rain
6:30 PM 42.8 °F 37.5 °F 37.4 °F 81% 29.88 in 2.0 mi East 9.2 mph - 0.00 in Rain Light Rain
6:32 PM 42.8 °F 37.0 °F 37.4 °F 81% 29.88 in 2.0 mi East 10.4 mph - 0.00 in Rain Light Rain
6:42 PM 42.8 °F 40.1 °F 37.4 °F 81% 29.88 in 2.0 mi ESE 4.6 mph 17.3 mph 0.01 in Rain Light Rain
6:51 PM 42.1 °F 37.7 °F 37.0 °F 82% 29.87 in 2.0 mi East 6.9 mph - 0.01 in Rain Light Rain
6:58 PM 42.8 °F 38.6 °F 37.4 °F 81% 29.89 in 2.0 mi ESE 6.9 mph - 0.00 in Rain Light Rain
7:04 PM 42.8 °F 38.6 °F 37.4 °F 81% 29.89 in 1.8 mi East 6.9 mph - 0.01 in Rain Light Rain
7:28 PM 41.0 °F 37.1 °F 37.4 °F 87% 29.86 in 3.0 mi East 5.8 mph - 0.08 in Rain Rain
7:51 PM 41.0 °F 35.8 °F 37.0 °F 86% 29.84 in 3.0 mi East 8.1 mph - 0.09 in Rain Rain
8:21 PM 41.0 °F 38.0 °F 37.4 °F 87% 29.84 in 2.5 mi Variable 4.6 mph - 0.01 in Rain Rain
8:34 PM 41.0 °F 37.1 °F 37.4 °F 87% 29.84 in 3.0 mi NE 5.8 mph - 0.01 in Rain Rain
8:51 PM 41.0 °F 38.0 °F 37.9 °F 89% 29.85 in 3.0 mi NNE 4.6 mph - 0.01 in Rain Rain
9:24 PM 41.0 °F 37.1 °F 37.4 °F 87% 29.85 in 2.5 mi NNE 5.8 mph - 0.01 in   Overcast
9:51 PM 41.0 °F 37.1 °F 37.9 °F 89% 29.83 in 2.0 mi NNE 5.8 mph - 0.02 in   Overcast
10:51 PM 41.0 °F 37.1 °F 37.9 °F 89% 29.78 in 2.5 mi NE 5.8 mph - N/A   Overcast
11:02 PM 41.0 °F 35.8 °F 37.4 °F 87% 29.77 in 1.5 mi ENE 8.1 mph - 0.01 in   Overcast
11:51 PM 41.0 °F 38.0 °F 37.9 °F 89% 29.78 in 1.5 mi NNE 4.6 mph - 0.04 in Rain Heavy Rain
11:58 PM 41.0 °F 37.1 °F 37.4 °F 87% 29.78 in 2.5 mi NNE 5.8 mph - 0.02 in Rain Rain